Regional Weather Roundup
Issued by NWS

Home | Current Version | Previous Version | Graphics & Text | Print | Product List | Glossary On
Versions: 1 2 3 4 5 6 7 8 9 10 11 12 13 14 15 16 17 18 19 20 21 22 23 24 25 26 27 28 29 30 31 32 33 34 35 36 37 38 39 40 41 42 43 44 45 46 47 48 49 50
000
ASUS45 KABQ 232001
RWRNM
NEW MEXICO REGIONAL WEATHER ROUNDUP
NATIONAL WEATHER SERVICE ALBUQUERQUE NM
100 PM MST FRI FEB 23 2018

NOTE: "FAIR" MEANS FEW OR NO CLOUDS BELOW 12,000 FEET AGL WITH NO
       SIGNIFICANT WEATHER OR OBSTRUCTIONS TO VISION.

      THIS PRODUCT IS RELEASED AS TWO VERSIONS.  ONE VERSION NEAR
      THE TOP OF THE HOUR CONTAINING PRELIMINARY DATA FROM ALBUQUERQUE
      AND OTHER STATIONS.  A FINAL VERSION WITH ADDITIONAL DATA IS
      ISSUED ABOUT 10 MINUTES AFTER THE HOUR.

NMZ501-503-504-510>518-232100-
NORTHWEST PLATEAU/NORTHCENTRAL MOUNTAINS

CITY           SKY/WX    TMP DP  RH WIND       PRES   REMARKS
FARMINGTON     FAIR      43  13  29 SW18      29.94F
LOS ALAMOS     FAIR      40  11  31 S17G25    29.96F WCI  31
SANTA FE       FAIR      46  10  23 SW7       29.95F
TAOS           FAIR      39  15  37 SW18      29.97F WCI  30
ANGEL FIRE     FAIR      36  10  35 SW9G21    29.95F WCI  29

$$
NMZ402-403-502-505>509-232100-
WESTCENTRAL MOUNTAINS/SOUTHWEST MOUNTAINS

CITY           SKY/WX    TMP DP  RH WIND       PRES   REMARKS
GALLUP         FAIR      38  20  48 SW17G24   29.94F WCI  28
GRANTS         FAIR      49   3  15 S18G29    29.92F
SILVER CITY    FAIR      53  10  18 SW13G20   30.04F

$$
NMZ407-409-411-412-232100-
SOUTHERN DESERTS

CITY           SKY/WX    TMP DP  RH WIND       PRES   REMARKS
DEMING         FAIR      58  19  22 SW12G21   30.02F
LAS CRUCES     FAIR      61  11  14 SW16G22   30.03F
HOLLOMAN AFB   FAIR      63  16  16 S17       30.02F
ALAMOGORDO     FAIR      63  18  17 S18       30.02F
T OR C         FAIR      61   9  12 S24G36    29.93F

$$
NMZ519>523-232100-
CENTRAL VALLEYS/CENTRAL HIGHLANDS

CITY           SKY/WX    TMP DP  RH WIND       PRES   REMARKS
ALBUQUERQUE    FAIR      51  16  24 S9        29.94F
DOUBLE EAGLE   SUNNY     50  12  22 S20G26    29.94F
MORIARTY ARPT  FAIR      55   8  15 SW24G32   29.95F
CLINES CORNERS NOT AVBL
BELEN          FAIR      56   8  14 S17G26    29.94F
SOCORRO        FAIR      58  11  15 S18G25    29.94F

$$
NMZ524>526-539-540-232100-
SOUTHCENTRAL MOUNTAINS

CITY           SKY/WX    TMP DP  RH WIND       PRES   REMARKS
RUIDOSO        FAIR      50   5  16 SW24G38   30.01F

$$
NMZ527>531-232100-
NORTHEAST HIGHLANDS/NORTHEAST PLAINS

CITY           SKY/WX    TMP DP  RH WIND       PRES   REMARKS
LAS VEGAS      FAIR      50   8  18 SW18G26   29.93F
RATON          FAIR      50   2  14 MISG      29.89F
CLAYTON        FAIR      58   4  11 S25G32    29.94F

$$
NMZ532>537-232100-
EASTCENTRAL PLAINS

CITY           SKY/WX    TMP DP  RH WIND       PRES   REMARKS
SANTA ROSA     FAIR      62  10  13 SW21      29.92F
TUCUMCARI      FAIR      68  14  12 S13G25    29.92F
CANNON AFB     FAIR      66  14  13 S15G25    29.96F
CLOVIS AIRPORT FAIR      67  16  14 S17G25    29.96

$$
NMZ028-029-538-232100-
SOUTHEAST PLAINS

CITY           SKY/WX    TMP DP  RH WIND       PRES   REMARKS
ROSWELL        FAIR      68  22  17 SE18G25   29.93F
ARTESIA        FAIR      70  16  12 SW21G30   29.95F
CARLSBAD       FAIR      65  30  27 SE9       29.97F
HOBBS          SUNNY     66  21  18 S8        29.99F


$$




USA.gov is the U.S. government's official web portal to all federal, state and local government web resources and services.